SCP
0 0 0 0 0 -0 -0 0 0 0 0 0 0 0 0 0 0 0 0 0 0 0 0 0 0 0 0 0 0 0 0 0 0 0 0 0 0 0 0 0 0 0 0 0 0 0 0
0 -0 -0 0 0 -0 -0 0 0 0 0 0 0 0 0 0 0 0 0 0 0 0 0 0 0 0 0 0 0 0 0 0 0 0 0 0 0 0 0 0 0 0 0 0 0 0 0
0 0 0 0 -0 -0 0 0 0 0 0 0 0 0 0 0 0 0 0 0 0 0 0 0 0 0 -0 0 0 0 0 0 0 0 0 0 0 0 0 0 0 0 -0 0 0 0 -0
0 0 0 0 -0 0 0 0 0 0 0 0 0 0 0 0 0 0 0 0 0 0 0 0 0 0 -0 0 0 0 0 0 0 0 0 0 0 0 0 0 0 0 -0 0 0 0 0
0 0 0 0 0 0 0 0 0 0 0 0 0 0 0 0 0 0 0 0 -0 -0 -0 0 0 0 -0 0 0 0 0 0 0 0 0 0 0 0 0 0 0 0 0 0 0 0 0
0 0 0 0 0 0 0 0 0 0 0 0 0 0 0 0 0 0 0 0 -0 -0 -0 -0 0 0 -0 -0 0 0 0 0 0 0 0 0 0 0 0 0 0 0 -0 -0 -0 -0 0
0 0 0 0 0 0 0 0 0 0 0 0 0 0 0 0 0 0 0 0 -0 0 -0 -0 -0 0 -0 -0 0 0 -0 0 0 0 0 0 0 0 0 0 0 0 0 -0 0 0 -0
0 0 0 0 0 0 0 -0 0 0 0 0 0 0 0 0 0 0 0 0 -0 0 0 0 0 0 0 -0 0 -0 -0 -0 -0 0 -0 0 0 0 -0 0 0 -0 -0 0 0 -0 -0
0 0 0 0 0 -0 -0 -0 -0 0 0 0 0 0 0 0 0 0 0 0 0 0 0 0 0 0 0 0 0 -0 -0 -0 -0 0 0 0 0 0 0 0 -0 0 -0 -0 -0 -0 -0
0 0 0 -0 -0 -0 -0 -0 -0 -0 0 0 0 0 0 0 -0 -0 0 0 0 -0 0 0 0 0 0 0 0 0 0 0 0 0 0 0 0 0 0 0 -0 -0 -0 0 -0 -0 0
0 0 0 -0 -0 -0 -0 -0 -0 -0 -0 0 0 0 0 0 -0 0 0 0 0 -0 0 0 0 0 0 0 0 0 0 0 0 0 0 0 0 0 0 0 0 -0 0 -0 -0 -0 0
0 0 0 0 -0 -0 -0 -0 -0 -0 -0 -0 -0 0 0 -0 0 0 0 0 0 0 0 0 0 0 0 0 0 0 0 0 0 0 0 0 0 0 0 0 0 -0 -0 -0 0 0 0
0 0 0 0 0 -0 -0 -0 -0 -0 -0 -0 -0 0 0 0 0 0 0 0 0 0 0 0 0 0 0 0 0 0 0 0 0 0 0 0 0 0 0 0 0 0 0 0 0 0 0
0 0 0 0 0 -0 -0 -0 -0 -0 -0 -0 -0 0 0 0 0 0 0 0 0 0 0 0 0 0 0 0 0 0 0 0 0 0 0 0 0 0 0 0 0 0 0 0 0 0 0
0 0 0 0 0 0 -0 -0 -0 -0 -0 -0 -0 0 0 0 0 0 0 0 0 0 0 0 0 0 0 0 0 0 0 0 0 0 0 0 0 0 0 0 0 0 0 0 0 0 0
0 0 0 0 0 0 0 -0 -0 -0 -0 0 -0 0 0 0 0 0 0 0 0 0 0 0 0 0 0 0 0 0 0 0 0 0 0 0 0 0 0 0 0 0 0 0 0 0 0
0 0 0 0 0 0 0 0 -0 -0 -0 0 -0 0 0 0 -0 0 0 0 0 0 0 0 0 0 0 0 0 0 0 0 0 0 0 0 0 0 0 0 0 0 0 0 0 0 0
0 0 0 0 0 0 0 0 -0 -0 -0 -0 0 0 0 0 0 0 0 0 0 0 0 0 0 0 0 0 0 0 0 0 0 0 0 0 0 0 0 -0 0 0 0 0 0 0 0
0 0 0 0 0 0 0 0 0 0 -0 0 0 0 0 0 0 0 0 0 0 0 0 0 0 0 0 0 0 0 0 0 0 0 0 0 0 0 0 0 0 0 0 0 0 0 0
0 0 0 0 0 0 0 0 0 0 0 0 0 0 0 0 0 0 0 0 0 0 0 0 0 0 0 0 0 0 0 0 0 0 0 0 0 0 0 0 0 0 0 0 0 0 0
0 0 0 0 0 0 0 0 0 0 0 0 0 0 0 0 0 0 0 0 0 0 0 0 0 0 0 0 0 0 0 0 0 0 0 0 0 0 0 0 0 0 0 -0 0 0 0
0 0 0 0 0 0 0 0 0 0 0 0 0 0 0 0 0 0 0 0 0 0 0 0 0 0 0 0 0 0 0 0 0 0 0 0 0 0 0 0 0 0 0 0 0 0 0
0 0 0 0 0 0 0 0 0 0 0 0 0 0 0 0 0 0 0 0 0 0 0 0 0 0 0 0 0 0 0 0 0 0 0 0 0 0 0 0 0 0 0 0 0 0 0
0 0 0 0 0 0 0 0 0 0 0 0 0 0 0 0 0 0 0 0 0 0 0 0 0 0 0 0 0 0 0 0 0 0 0 0 0 0 0 0 0 0 0 0 0 0 0
0 0 0 0 0 0 0 0 0 0 0 0 0 0 0 0 0 0 0 0 0 0 0 0 0 0 0 0 0 0 0 0 0 0 0 0 0 0 0 0 0 0 -0 0 0 0 0
0 0 0 0 0 0 0 0 0 0 0 0 0 0 0 0 0 0 0 0 0 0 0 0 0 0 0 0 0 0 0 0 0 0 0 0 0 0 0 0 0 0 0 0 0 0 0
0 0 0 0 0 0 0 0 0 0 0 0 0 0 0 0 0 0 0 0 0 0 0 0 0 0 0 0 0 0 0 0 0 0 0 0 0 0 0 0 0 0 0 0 0 0 0
0 0 0 0 0 0 0 0 0 0 0 0 0 0 0 0 0 0 0 0 0 0 0 0 0 0 0 0 0 0 0 0 0 0 0 0 0 0 0 0 0 0 0 0 0 0 0
0 0 0 0 0 0 0 0 0 0 0 0 0 0 0 0 0 0 0 0 0 0 0 0 0 0 0 0 0 0 0 0 0 0 0 0 0 0 0 0 0 0 0 0 0 0 0
Wind_Speed_500mb
29 28 28 30 31 30 26 24 23 21 22 23 24 25 28 33 37 40 42 40 35 32 29 27 23 19 14 20 18 15 19 20 19 13 10 8 9 8 9 7 8 10 8 5 1 4 8
28 28 31 34 35 34 30 27 24 24 25 27 28 28 31 35 38 40 39 37 33 34 33 31 29 17 8 23 14 15 16 18 16 13 16 15 11 14 7 9 13 4 3 1 7 4 10
26 27 31 34 36 36 33 27 23 24 26 29 30 30 28 31 35 35 31 33 36 34 31 26 23 25 25 16 14 13 13 14 14 14 17 13 8 10 4 6 5 2 21 10 7 8 17
23 24 27 31 34 36 35 31 25 22 26 29 32 32 29 30 30 30 32 35 33 29 25 20 12 9 16 10 12 15 13 11 12 11 11 15 5 6 7 3 6 11 15 13 11 9 6
20 22 25 29 32 34 36 34 28 23 22 26 31 32 31 30 29 26 29 29 23 17 12 14 9 2 13 7 7 13 14 10 7 8 9 10 6 1 14 13 19 8 17 13 16 5 14
17 20 23 26 28 31 32 33 31 22 18 21 26 27 31 26 27 27 24 20 18 15 16 15 8 13 11 7 7 14 9 11 10 12 12 8 11 16 15 22 17 19 21 21 23 15 20
16 17 21 23 25 28 29 29 29 26 17 16 21 24 24 27 29 29 24 13 10 9 22 20 14 18 10 3 10 13 15 12 11 8 11 7 10 17 19 15 11 13 21 29 25 14 24
14 15 19 21 22 25 27 29 28 26 22 12 15 20 21 20 17 12 9 7 6 17 17 18 16 13 9 8 6 23 20 9 8 11 14 14 13 13 14 10 18 24 26 23 22 29 33
11 12 16 19 20 22 26 29 28 25 21 18 7 16 18 16 10 6 2 11 24 9 6 9 10 14 7 9 8 20 22 10 10 6 11 10 14 9 13 12 28 28 21 31 36 39 33
8 10 15 17 18 19 23 29 30 26 20 18 14 5 16 16 7 10 8 16 10 4 9 6 2 6 11 3 2 15 16 8 3 10 12 9 5 10 11 9 23 24 20 30 37 35 18
7 5 10 13 15 17 20 25 27 25 20 17 18 7 11 19 6 11 16 9 4 5 6 6 6 3 9 6 11 11 14 2 8 8 10 10 7 11 8 14 18 19 33 32 29 24 23
10 3 5 11 12 14 17 22 24 23 19 16 17 14 7 10 14 14 16 7 1 8 3 8 1 3 5 8 8 9 11 5 1 6 6 6 2 5 10 18 9 27 38 40 2 12 11
15 9 2 8 10 11 14 19 23 22 15 11 18 20 11 8 12 16 13 2 7 7 3 7 3 2 3 7 4 10 8 18 11 7 1 10 9 7 10 24 6 27 26 10 7 10 15
18 13 6 5 11 12 14 19 23 23 11 5 10 23 16 10 11 16 12 8 10 9 2 6 0 2 5 14 6 8 5 4 18 18 14 11 6 3 13 9 14 16 16 6 9 13 26
22 18 13 8 10 12 13 19 25 27 12 4 6 13 21 10 8 18 11 8 5 3 6 1 5 8 6 2 10 8 9 8 13 22 15 11 2 5 0 9 12 6 11 11 13 18 12
26 21 16 12 11 11 11 16 25 30 16 5 4 3 17 9 10 14 3 5 3 5 2 3 5 6 5 6 7 8 8 7 6 15 17 7 15 3 1 13 19 16 15 9 7 10 22
27 23 18 14 13 11 10 13 21 30 17 7 6 5 14 6 11 3 2 6 11 9 6 9 5 2 6 9 10 8 7 8 7 10 12 12 3 11 26 9 27 14 18 9 9 14 12
30 25 21 18 14 12 8 9 15 23 20 6 3 3 16 7 4 1 5 6 4 9 6 6 5 7 7 8 7 7 7 10 8 15 14 10 10 15 30 28 9 12 18 21 16 17 19
30 27 23 20 16 13 9 7 10 17 24 8 4 7 15 3 3 5 12 13 10 4 9 4 5 8 6 7 7 4 5 4 12 9 17 16 3 14 18 11 9 15 19 25 25 22 38
31 28 23 20 17 14 10 7 6 8 14 13 4 3 8 11 8 12 15 9 11 7 8 5 4 2 3 5 0 7 12 4 5 19 21 12 16 19 22 36 39 40 48 52 40 20 45
31 28 26 24 19 16 12 9 6 6 8 9 5 5 2 4 7 7 4 2 9 5 1 3 3 5 4 5 12 7 8 20 17 11 8 12 23 30 38 44 43 46 52 62 51 51 45
33 31 28 24 20 18 15 11 9 7 3 7 4 3 4 7 5 4 3 2 4 6 4 4 11 4 8 10 12 26 26 22 17 10 16 11 10 17 34 46 41 42 49 60 54 56 58
35 34 31 27 24 21 18 15 13 8 4 4 3 5 3 6 5 5 7 7 7 1 2 9 9 9 13 24 25 29 36 39 42 35 34 22 6 5 15 28 18 21 36 33 31 40 46
41 37 34 30 26 22 20 17 16 14 10 5 5 2 2 4 10 12 8 11 12 12 13 12 14 17 13 15 32 32 40 49 53 55 45 8 7 3 9 9 14 14 47 44 33 39 40
47 45 39 34 30 26 22 17 16 16 15 12 13 5 3 2 15 14 17 20 18 17 19 23 24 23 14 22 9 12 10 6 15 22 22 34 11 6 9 21 42 32 25 38 30 33 39
55 51 48 42 37 33 29 22 19 17 17 16 17 19 7 5 12 28 23 25 19 20 22 16 18 12 4 6 2 6 8 11 9 8 4 6 8 8 10 21 26 20 44 14 27 30 14
65 60 55 51 45 41 37 31 27 22 21 20 16 23 18 11 19 17 22 18 25 17 15 10 10 9 11 5 7 8 11 22 9 5 10 3 7 21 25 20 25 32 39 7 14 23 45
66 66 63 59 55 51 47 42 37 32 27 28 25 27 27 18 32 23 30 33 25 17 14 8 5 9 2 7 8 10 7 10 15 28 21 23 8 8 8 15 21 5 12 6 28 70 78
64 66 63 63 60 58 53 49 48 40 36 34 40 36 36 41 24 20 35 51 43 46 42 24 22 13 19 8 8 6 9 4 11 27 36 27 29 23 22 19 42 75 71 76 78 81 69
Wind_Direction_500mb
83 74 66 61 57 56 58 64 70 79 87 92 92 104 119 123 126 128 131 127 121 119 124 124 117 121 123 86 52 25 31 33 24 13 11 357 340 334 29 48 75 70 77 9 20 296 333
81 74 67 61 58 56 59 66 77 87 89 92 99 108 116 127 133 133 130 127 121 117 112 110 106 91 113 84 33 31 26 31 34 36 38 32 20 19 46 19 357 63 349 92 285 319 258
80 70 64 59 56 56 59 70 81 92 93 98 101 105 121 132 131 130 127 125 120 116 114 110 111 96 81 72 47 38 23 31 35 47 35 19 12 310 339 137 2 325 264 184 206 327 295
77 67 63 60 57 56 57 64 76 90 97 100 108 114 120 123 123 125 125 125 122 120 117 107 99 76 79 67 73 35 35 41 42 26 24 27 20 45 328 115 216 263 252 295 99 302 98
73 66 60 58 57 55 54 57 66 81 98 103 113 119 121 118 120 123 129 129 122 116 114 107 76 50 86 43 39 27 28 21 343 358 351 359 18 50 182 238 217 170 337 341 313 249 304
70 61 59 55 53 54 55 56 58 69 101 121 121 127 134 125 126 125 126 128 117 81 83 67 65 132 58 22 16 4 349 342 334 316 263 319 234 240 37 357 16 339 333 322 312 357 323
70 57 55 54 51 50 52 54 54 58 82 128 142 136 139 138 137 131 127 133 161 113 76 60 65 81 74 22 41 6 345 326 310 259 327 337 295 21 11 10 336 298 300 306 344 3 318
72 59 55 53 51 49 47 47 46 49 58 104 158 164 155 158 160 167 192 300 24 127 92 71 78 75 59 25 281 8 4 319 309 322 314 228 63 21 337 332 322 301 316 344 319 333 314
80 60 55 55 53 48 43 41 38 40 50 55 119 184 186 183 188 210 153 130 140 142 168 91 65 45 22 11 29 0 4 320 331 316 349 331 48 335 317 348 345 331 346 337 322 322 289
99 60 52 49 51 48 40 34 30 31 41 46 44 159 202 207 238 214 164 151 159 238 229 84 115 48 359 300 194 10 4 351 190 352 336 28 43 331 311 352 340 306 353 322 317 330 323
156 75 56 51 50 49 38 30 24 23 33 44 37 69 166 181 217 168 181 166 208 263 249 103 86 10 29 45 339 39 9 236 5 359 275 78 331 329 304 349 333 309 324 302 288 302 312
196 185 48 45 44 40 32 25 22 19 26 43 46 53 129 186 192 173 167 146 124 235 213 142 328 351 218 36 34 6 24 54 324 275 236 7 335 304 352 310 316 304 309 298 199 246 260
213 223 313 22 28 31 26 20 19 17 23 50 50 45 57 156 194 177 176 169 240 266 120 139 73 339 359 30 49 15 24 44 32 312 190 229 157 120 333 313 243 330 333 322 307 227 284
222 229 250 340 4 13 17 14 14 13 20 70 61 41 53 79 137 175 166 219 247 0 0 78 356 228 322 350 87 347 292 107 50 349 303 319 209 337 19 21 316 313 327 322 294 307 304
224 229 242 287 340 358 8 10 10 8 15 66 97 35 36 55 124 146 202 221 73 357 14 296 183 252 133 102 307 310 30 25 33 23 356 331 356 134 186 324 304 27 286 1 270 264 270
222 227 239 269 309 336 352 10 10 7 11 33 82 54 11 53 119 146 248 26 90 44 354 266 302 323 315 14 294 338 347 44 29 23 350 48 294 66 3 273 225 271 350 258 199 293 301
218 223 232 251 282 313 341 5 11 10 15 33 84 220 352 89 94 207 181 76 99 63 7 336 19 346 11 351 341 342 23 102 359 10 325 345 257 316 320 199 326 279 262 227 275 279 284
218 220 228 242 258 283 315 353 8 15 18 50 37 221 345 155 192 125 108 74 96 78 73 57 22 28 7 358 325 337 343 22 356 333 337 41 297 288 287 293 311 270 274 273 281 288 285
219 224 228 236 244 260 284 323 5 16 22 45 11 46 2 79 117 115 135 107 66 121 49 41 74 18 15 356 320 336 345 67 309 296 1 354 272 309 318 168 199 285 295 270 262 276 260
214 217 228 234 236 245 259 287 332 17 26 39 340 18 30 52 7 137 137 139 127 87 91 69 72 278 286 303 104 289 300 29 269 287 328 304 258 252 275 294 305 300 295 290 288 278 276
209 210 213 221 231 236 250 265 291 334 20 64 24 75 48 63 60 82 56 151 149 141 125 216 166 257 306 318 326 278 283 295 299 280 227 234 263 269 275 285 294 287 282 281 284 278 273
210 209 213 220 231 238 239 252 276 302 347 22 319 162 82 114 118 157 48 119 211 137 279 175 272 207 268 278 252 297 310 301 297 277 249 274 269 291 281 288 279 278 277 280 281 277 275
214 211 211 217 226 236 243 248 251 261 314 350 347 119 137 160 160 194 188 185 180 95 175 278 292 273 289 291 303 306 296 286 275 275 271 263 196 240 269 289 336 288 256 262 264 275 281
219 217 215 216 220 229 240 243 248 243 228 198 250 133 215 171 217 222 233 234 226 235 284 284 266 283 295 302 301 292 285 277 270 267 262 207 137 246 279 261 244 263 319 304 299 297 299
225 223 223 225 227 228 230 238 252 253 237 220 230 203 206 190 222 225 239 250 261 269 266 273 277 284 295 298 323 316 291 314 272 232 255 240 181 239 260 263 286 292 268 335 319 304 291
228 228 230 230 232 235 236 233 238 252 251 238 238 223 231 181 234 249 256 243 250 264 275 250 261 273 259 291 64 253 284 304 291 279 99 318 9 188 264 278 290 303 310 331 308 294 22
227 229 230 233 233 237 239 239 240 240 248 244 240 230 230 237 244 234 235 251 243 254 280 274 232 249 239 173 224 233 246 251 264 230 267 231 244 233 246 265 264 277 300 336 286 313 321
229 231 231 231 235 236 240 241 240 238 238 243 244 246 234 245 253 242 238 241 240 250 253 252 254 236 130 190 218 232 239 252 272 268 283 280 259 213 226 236 277 275 284 288 280 307 305
228 229 232 233 233 237 238 241 241 236 236 241 247 252 248 241 252 236 242 247 247 251 259 250 229 229 208 222 216 223 242 236 257 276 270 270 245 261 241 259 283 300 307 303 306 302 326
Wind_Speed_850mb
29 28 28 30 31 30 26 24 23 21 22 23 24 25 28 33 37 40 42 40 35 32 29 27 23 19 14 20 18 15 19 20 19 13 10 8 9 8 9 7 8 10 8 5 1 4 8
28 28 31 34 35 34 30 27 24 24 25 27 28 28 31 35 38 40 39 37 33 34 33 31 29 17 8 23 14 15 16 18 16 13 16 15 11 14 7 9 13 4 3 1 7 4 10
26 27 31 34 36 36 33 27 23 24 26 29 30 30 28 31 35 35 31 33 36 34 31 26 23 25 25 16 14 13 13 14 14 14 17 13 8 10 4 6 5 2 21 10 7 8 17
23 24 27 31 34 36 35 31 25 22 26 29 32 32 29 30 30 30 32 35 33 29 25 20 12 9 16 10 12 15 13 11 12 11 11 15 5 6 7 3 6 11 15 13 11 9 6
20 22 25 29 32 34 36 34 28 23 22 26 31 32 31 30 29 26 29 29 23 17 12 14 9 2 13 7 7 13 14 10 7 8 9 10 6 1 14 13 19 8 17 13 16 5 14
17 20 23 26 28 31 32 33 31 22 18 21 26 27 31 26 27 27 24 20 18 15 16 15 8 13 11 7 7 14 9 11 10 12 12 8 11 16 15 22 17 19 21 21 23 15 20
16 17 21 23 25 28 29 29 29 26 17 16 21 24 24 27 29 29 24 13 10 9 22 20 14 18 10 3 10 13 15 12 11 8 11 7 10 17 19 15 11 13 21 29 25 14 24
14 15 19 21 22 25 27 29 28 26 22 12 15 20 21 20 17 12 9 7 6 17 17 18 16 13 9 8 6 23 20 9 8 11 14 14 13 13 14 10 18 24 26 23 22 29 33
11 12 16 19 20 22 26 29 28 25 21 18 7 16 18 16 10 6 2 11 24 9 6 9 10 14 7 9 8 20 22 10 10 6 11 10 14 9 13 12 28 28 21 31 36 39 33
8 10 15 17 18 19 23 29 30 26 20 18 14 5 16 16 7 10 8 16 10 4 9 6 2 6 11 3 2 15 16 8 3 10 12 9 5 10 11 9 23 24 20 30 37 35 18
7 5 10 13 15 17 20 25 27 25 20 17 18 7 11 19 6 11 16 9 4 5 6 6 6 3 9 6 11 11 14 2 8 8 10 10 7 11 8 14 18 19 33 32 29 24 23
10 3 5 11 12 14 17 22 24 23 19 16 17 14 7 10 14 14 16 7 1 8 3 8 1 3 5 8 8 9 11 5 1 6 6 6 2 5 10 18 9 27 38 40 2 12 11
15 9 2 8 10 11 14 19 23 22 15 11 18 20 11 8 12 16 13 2 7 7 3 7 3 2 3 7 4 10 8 18 11 7 1 10 9 7 10 24 6 27 26 10 7 10 15
18 13 6 5 11 12 14 19 23 23 11 5 10 23 16 10 11 16 12 8 10 9 2 6 0 2 5 14 6 8 5 4 18 18 14 11 6 3 13 9 14 16 16 6 9 13 26
22 18 13 8 10 12 13 19 25 27 12 4 6 13 21 10 8 18 11 8 5 3 6 1 5 8 6 2 10 8 9 8 13 22 15 11 2 5 0 9 12 6 11 11 13 18 12
26 21 16 12 11 11 11 16 25 30 16 5 4 3 17 9 10 14 3 5 3 5 2 3 5 6 5 6 7 8 8 7 6 15 17 7 15 3 1 13 19 16 15 9 7 10 22
27 23 18 14 13 11 10 13 21 30 17 7 6 5 14 6 11 3 2 6 11 9 6 9 5 2 6 9 10 8 7 8 7 10 12 12 3 11 26 9 27 14 18 9 9 14 12
30 25 21 18 14 12 8 9 15 23 20 6 3 3 16 7 4 1 5 6 4 9 6 6 5 7 7 8 7 7 7 10 8 15 14 10 10 15 30 28 9 12 18 21 16 17 19
30 27 23 20 16 13 9 7 10 17 24 8 4 7 15 3 3 5 12 13 10 4 9 4 5 8 6 7 7 4 5 4 12 9 17 16 3 14 18 11 9 15 19 25 25 22 38
31 28 23 20 17 14 10 7 6 8 14 13 4 3 8 11 8 12 15 9 11 7 8 5 4 2 3 5 0 7 12 4 5 19 21 12 16 19 22 36 39 40 48 52 40 20 45
31 28 26 24 19 16 12 9 6 6 8 9 5 5 2 4 7 7 4 2 9 5 1 3 3 5 4 5 12 7 8 20 17 11 8 12 23 30 38 44 43 46 52 62 51 51 45
33 31 28 24 20 18 15 11 9 7 3 7 4 3 4 7 5 4 3 2 4 6 4 4 11 4 8 10 12 26 26 22 17 10 16 11 10 17 34 46 41 42 49 60 54 56 58
35 34 31 27 24 21 18 15 13 8 4 4 3 5 3 6 5 5 7 7 7 1 2 9 9 9 13 24 25 29 36 39 42 35 34 22 6 5 15 28 18 21 36 33 31 40 46
41 37 34 30 26 22 20 17 16 14 10 5 5 2 2 4 10 12 8 11 12 12 13 12 14 17 13 15 32 32 40 49 53 55 45 8 7 3 9 9 14 14 47 44 33 39 40
47 45 39 34 30 26 22 17 16 16 15 12 13 5 3 2 15 14 17 20 18 17 19 23 24 23 14 22 9 12 10 6 15 22 22 34 11 6 9 21 42 32 25 38 30 33 39
55 51 48 42 37 33 29 22 19 17 17 16 17 19 7 5 12 28 23 25 19 20 22 16 18 12 4 6 2 6 8 11 9 8 4 6 8 8 10 21 26 20 44 14 27 30 14
65 60 55 51 45 41 37 31 27 22 21 20 16 23 18 11 19 17 22 18 25 17 15 10 10 9 11 5 7 8 11 22 9 5 10 3 7 21 25 20 25 32 39 7 14 23 45
66 66 63 59 55 51 47 42 37 32 27 28 25 27 27 18 32 23 30 33 25 17 14 8 5 9 2 7 8 10 7 10 15 28 21 23 8 8 8 15 21 5 12 6 28 70 78
64 66 63 63 60 58 53 49 48 40 36 34 40 36 36 41 24 20 35 51 43 46 42 24 22 13 19 8 8 6 9 4 11 27 36 27 29 23 22 19 42 75 71 76 78 81 69
Wind_Direction_850mb
83 74 66 61 57 56 58 64 70 79 87 92 92 104 119 123 126 128 131 127 121 119 124 124 117 121 123 86 52 25 31 33 24 13 11 357 340 334 29 48 75 70 77 9 20 296 333
81 74 67 61 58 56 59 66 77 87 89 92 99 108 116 127 133 133 130 127 121 117 112 110 106 91 113 84 33 31 26 31 34 36 38 32 20 19 46 19 357 63 349 92 285 319 258
80 70 64 59 56 56 59 70 81 92 93 98 101 105 121 132 131 130 127 125 120 116 114 110 111 96 81 72 47 38 23 31 35 47 35 19 12 310 339 137 2 325 264 184 206 327 295
77 67 63 60 57 56 57 64 76 90 97 100 108 114 120 123 123 125 125 125 122 120 117 107 99 76 79 67 73 35 35 41 42 26 24 27 20 45 328 115 216 263 252 295 99 302 98
73 66 60 58 57 55 54 57 66 81 98 103 113 119 121 118 120 123 129 129 122 116 114 107 76 50 86 43 39 27 28 21 343 358 351 359 18 50 182 238 217 170 337 341 313 249 304
70 61 59 55 53 54 55 56 58 69 101 121 121 127 134 125 126 125 126 128 117 81 83 67 65 132 58 22 16 4 349 342 334 316 263 319 234 240 37 357 16 339 333 322 312 357 323
70 57 55 54 51 50 52 54 54 58 82 128 142 136 139 138 137 131 127 133 161 113 76 60 65 81 74 22 41 6 345 326 310 259 327 337 295 21 11 10 336 298 300 306 344 3 318
72 59 55 53 51 49 47 47 46 49 58 104 158 164 155 158 160 167 192 300 24 127 92 71 78 75 59 25 281 8 4 319 309 322 314 228 63 21 337 332 322 301 316 344 319 333 314
80 60 55 55 53 48 43 41 38 40 50 55 119 184 186 183 188 210 153 130 140 142 168 91 65 45 22 11 29 0 4 320 331 316 349 331 48 335 317 348 345 331 346 337 322 322 289
99 60 52 49 51 48 40 34 30 31 41 46 44 159 202 207 238 214 164 151 159 238 229 84 115 48 359 300 194 10 4 351 190 352 336 28 43 331 311 352 340 306 353 322 317 330 323
156 75 56 51 50 49 38 30 24 23 33 44 37 69 166 181 217 168 181 166 208 263 249 103 86 10 29 45 339 39 9 236 5 359 275 78 331 329 304 349 333 309 324 302 288 302 312
196 185 48 45 44 40 32 25 22 19 26 43 46 53 129 186 192 173 167 146 124 235 213 142 328 351 218 36 34 6 24 54 324 275 236 7 335 304 352 310 316 304 309 298 199 246 260
213 223 313 22 28 31 26 20 19 17 23 50 50 45 57 156 194 177 176 169 240 266 120 139 73 339 359 30 49 15 24 44 32 312 190 229 157 120 333 313 243 330 333 322 307 227 284
222 229 250 340 4 13 17 14 14 13 20 70 61 41 53 79 137 175 166 219 247 0 0 78 356 228 322 350 87 347 292 107 50 349 303 319 209 337 19 21 316 313 327 322 294 307 304
224 229 242 287 340 358 8 10 10 8 15 66 97 35 36 55 124 146 202 221 73 357 14 296 183 252 133 102 307 310 30 25 33 23 356 331 356 134 186 324 304 27 286 1 270 264 270
222 227 239 269 309 336 352 10 10 7 11 33 82 54 11 53 119 146 248 26 90 44 354 266 302 323 315 14 294 338 347 44 29 23 350 48 294 66 3 273 225 271 350 258 199 293 301
218 223 232 251 282 313 341 5 11 10 15 33 84 220 352 89 94 207 181 76 99 63 7 336 19 346 11 351 341 342 23 102 359 10 325 345 257 316 320 199 326 279 262 227 275 279 284
218 220 228 242 258 283 315 353 8 15 18 50 37 221 345 155 192 125 108 74 96 78 73 57 22 28 7 358 325 337 343 22 356 333 337 41 297 288 287 293 311 270 274 273 281 288 285
219 224 228 236 244 260 284 323 5 16 22 45 11 46 2 79 117 115 135 107 66 121 49 41 74 18 15 356 320 336 345 67 309 296 1 354 272 309 318 168 199 285 295 270 262 276 260
214 217 228 234 236 245 259 287 332 17 26 39 340 18 30 52 7 137 137 139 127 87 91 69 72 278 286 303 104 289 300 29 269 287 328 304 258 252 275 294 305 300 295 290 288 278 276
209 210 213 221 231 236 250 265 291 334 20 64 24 75 48 63 60 82 56 151 149 141 125 216 166 257 306 318 326 278 283 295 299 280 227 234 263 269 275 285 294 287 282 281 284 278 273
210 209 213 220 231 238 239 252 276 302 347 22 319 162 82 114 118 157 48 119 211 137 279 175 272 207 268 278 252 297 310 301 297 277 249 274 269 291 281 288 279 278 277 280 281 277 275
214 211 211 217 226 236 243 248 251 261 314 350 347 119 137 160 160 194 188 185 180 95 175 278 292 273 289 291 303 306 296 286 275 275 271 263 196 240 269 289 336 288 256 262 264 275 281
219 217 215 216 220 229 240 243 248 243 228 198 250 133 215 171 217 222 233 234 226 235 284 284 266 283 295 302 301 292 285 277 270 267 262 207 137 246 279 261 244 263 319 304 299 297 299
225 223 223 225 227 228 230 238 252 253 237 220 230 203 206 190 222 225 239 250 261 269 266 273 277 284 295 298 323 316 291 314 272 232 255 240 181 239 260 263 286 292 268 335 319 304 291
228 228 230 230 232 235 236 233 238 252 251 238 238 223 231 181 234 249 256 243 250 264 275 250 261 273 259 291 64 253 284 304 291 279 99 318 9 188 264 278 290 303 310 331 308 294 22
227 229 230 233 233 237 239 239 240 240 248 244 240 230 230 237 244 234 235 251 243 254 280 274 232 249 239 173 224 233 246 251 264 230 267 231 244 233 246 265 264 277 300 336 286 313 321
229 231 231 231 235 236 240 241 240 238 238 243 244 246 234 245 253 242 238 241 240 250 253 252 254 236 130 190 218 232 239 252 272 268 283 280 259 213 226 236 277 275 284 288 280 307 305
228 229 232 233 233 237 238 241 241 236 236 241 247 252 248 241 252 236 242 247 247 251 259 250 229 229 208 222 216 223 242 236 257 276 270 270 245 261 241 259 283 300 307 303 306 302 326